STARLINK-5698, 55623

Orbit data source: Space-Track

STARLINK-5698, 55623 is a payload satellite owned by SpaceX/Seattle (US) in LEO that was launched on Sun, 12 Feb 2023 UTC via an FALCON 9 launch vehicle from the Air Force Eastern Test Range (AFETR). Payload-class satellites include a variety of spacecraft equipped with specific instruments for various scientific and technological missions. These include communications satellites like Starlink; space stations such as the ISS; scientific satellites like the Hubble; Earth observation satellites from companies like Planet Labs, Umbra, and HawkEye 360; GPS; miniature CubeSats for education and research; and military/defense satellites.

Loading next visibility...
Identifier
55623, 2023-020BG
Orbit
LEO
Country
Flag of USUS
Related business
Manufacturer
SpaceX/Seattle
Mission
Operational Commercial Communications
Bus & Motor
STARLINK, Unknown motor
Mass
305 kg wet, ~290 kg dry
Launch date (UTC)
2023-02-12 (4 years ago)
Launch vehicle
FALCON 9
Launch site
Air Force Eastern Test Range (AFETR)
Object type
Payload
Rocket body
Debris
Shape & HBR
Box + 1 Pan, 10.1 m
Radar Cross Section
13.562 m², Large (>1 m²)

Expand to show TLE details & history
Last TLE update: 10 hours ago

TLE from 10 hours ago
0 STARLINK-5698
1 55623U 23020BG  26264.22728261 -.00000149  00000-0  41113-5 0  9998
2 55623  43.0037 329.9856 0001186 279.1408  80.9310 15.27575431 22363
Epoch: 2026-09-21T05:27Z
TLE epoch observation values (Epoch: 2026-09-21T05:27:17.217Z)
Latitude
0.00002°
Longitude
-111.94626°
Altitude
482.71 km
Speed
7.626 km/s
True Right ascension
21h 59m 56s
True Declination
0° 00' 00"
Sunlit
Object was in full shadow at epoch
Visualization orbit readout
Latitude
Unknown
Longitude
Unknown
Altitude
Unknown
Speed
Unknown
Apparent Right ascension
Unknown
Apparent Declination
Unknown
Sunlit
N/A
Visualization observer readout
Local Sidereal Time
08:08:20
Azimuth
Unknown
Elevation
Unknown
Doppler factor
Unknown
Orbital elements
Apogee altitude
485.821 km
Perigee altitude
484.193 km
Semi-major axis
6,863.144 km
Eccentricity
0.00012
Inclination
43.0037°
RAAN
329.9856°
Arg. of periapsis
279.1408°
True anomaly
80.94442°
Mean anomaly
80.931°
Eccentric anomaly
80.93771°
Mean motion
3.81732 °/min
Orbital period
94.31 mins
BSTAR
0.0000041113
Loading maneuver chart data...
Computing Atmospheric mass density...
Loading historical data...
Loading historical data...
Loading historical data...
Loading historical data...
Loading historical data...
Loading historical data...
Loading historical data...

Documentation

Showing up to 5 results
|